WetterOnline ( https://www.wetteronline.de )

Wetter aktuell Mömbris

Aktuelles Wetter: Neuhütten/Spessart (340m)

6-stündlich | Neueste Meldungen
Ortszeit Temperatur Wetter
Di, 18.06. 2:00 12.4° C Nebel
Mo, 17.06. 20:00 19.1° C bedeckt
Mo, 17.06. 14:00 19.7° C wolkig
Mo, 17.06. 8:00 14.3° C leichter Regen
Mo, 17.06. 2:00 13.1° C Sprühregen
So, 16.06. 20:00 18.3° C bedeckt
So, 16.06. 14:00 18.6° C bewölkt
So, 16.06. 8:00 13.6° C bedeckt
Ortszeit Temperatur Wetter
Di, 18.06. 5:10 11.3° C Nebel
Di, 18.06. 5:00 11.1° C Nebel
Di, 18.06. 4:50 11.1° C Nebel
Di, 18.06. 4:40 11.1° C Nebel
Di, 18.06. 4:30 11.0° C Nebel
Di, 18.06. 4:20 11.0° C Nebel
Di, 18.06. 4:00 11.2° C Nebel
Di, 18.06. 3:30 11.3° C Nebel
Di, 18.06. 3:00 11.9° C Nebel
Di, 18.06. 2:30 12.0° C Nebel
Ortszeit Relative Feuchte Sichtweite
Di, 18.06. 2:00 99% 100 m
Mo, 17.06. 20:00 70% >70 km
Mo, 17.06. 14:00 70% 65 km
Mo, 17.06. 8:00 96% 14 km
Mo, 17.06. 2:00 89% 29 km
So, 16.06. 20:00 56% 45 km
So, 16.06. 14:00 53% >70 km
So, 16.06. 8:00 77% 55 km
Ortszeit Relative Feuchte Sichtweite
Di, 18.06. 5:10 100% -
Di, 18.06. 5:00 100% 100 m
Di, 18.06. 4:50 100% -
Di, 18.06. 4:40 100% -
Di, 18.06. 4:30 100% 100 m
Di, 18.06. 4:20 100% -
Di, 18.06. 4:00 100% 0.5 km
Di, 18.06. 3:30 100% 100 m
Di, 18.06. 3:00 99% 100 m
Di, 18.06. 2:30 99% 100 m
Ortszeit Niederschlagsmenge Niederschlagsart
Di, 18.06. 2:00 0.0 l/m2 in 6 Std. -
Mo, 17.06. 20:00 0.3 l/m2 in 12 Std. -
Mo, 17.06. 14:00 0.3 l/m2 in 6 Std. Regen
Mo, 17.06. 8:00 5 l/m2 in 12 Std. Regen
Mo, 17.06. 2:00 0.2 l/m2 in 6 Std. Regen
So, 16.06. 20:00 0.1 l/m2 in 12 Std. Regen
So, 16.06. 14:00 0.1 l/m2 in 6 Std. Regen
So, 16.06. 8:00 0.0 l/m2 in 12 Std. -
Ortszeit Niederschlagsmenge Niederschlagsart
Di, 18.06. 5:10 keine Meldung -
Di, 18.06. 5:00 0.0 l/m2 in 1 Std. -
Di, 18.06. 4:50 keine Meldung -
Di, 18.06. 4:40 keine Meldung -
Di, 18.06. 4:30 0.0 l/m2 in 30 Min -
Di, 18.06. 4:20 keine Meldung -
Di, 18.06. 4:00 0.0 l/m2 in 1 Std. -
Di, 18.06. 3:30 0.0 l/m2 in 30 Min -
Di, 18.06. 3:00 0.0 l/m2 in 1 Std. -
Di, 18.06. 2:30 0.0 l/m2 in 30 Min -
Ortszeit Stärke Spitze Richtung
km/h Bft. km/h Grad Sektor
Di, 18.06. 2:00 2 1 22 250° W
Mo, 17.06. 20:00 18 3 36 240° SW
Mo, 17.06. 14:00 11 2 36 240° SW
Mo, 17.06. 8:00 7 2 11 200° S
Mo, 17.06. 2:00 4 1 14 210° SW
So, 16.06. 20:00 4 1 50 260° W
So, 16.06. 14:00 20 4 39 220° SW
So, 16.06. 8:00 7 2 17 220° SW
Ortszeit Stärke Spitze Richtung
km/h Bft. km/h Grad Sektor
Di, 18.06. 5:10 4 1 - 210° SW
Di, 18.06. 5:00 4 1 4 230° SW
Di, 18.06. 4:50 4 1 - 230° SW
Di, 18.06. 4:40 0 0 - 110° O
Di, 18.06. 4:30 2 1 4 40° NO
Di, 18.06. 4:20 2 1 - 40° NO
Di, 18.06. 4:00 2 1 4 270° W
Di, 18.06. 3:30 4 1 4 210° SW
Di, 18.06. 3:00 2 1 6 20° N
Di, 18.06. 2:30 0 0 4 - -
Ortszeit Untergrenze Bedeckung Gattung
total tief tief mittel hoch
Di, 18.06. 2:00 <30 m 8/8 0/8 - - -
Mo, 17.06. 20:00 6000 m 8/8 8/8 - - -
Mo, 17.06. 14:00 1230 m 8/8 3/8 - - -
Mo, 17.06. 8:00 270 m 8/8 8/8 - - -
Mo, 17.06. 2:00 1350 m 8/8 8/8 - - -
So, 16.06. 20:00 1500 m 8/8 8/8 - - -
So, 16.06. 14:00 1320 m 7/8 7/8 - - -
So, 16.06. 8:00 2400 m 8/8 8/8 - - -
Ortszeit Bedeckungsgrad in Achtel und Wolkenuntergrenze
Di, 18.06. 5:10 8
Di, 18.06. 5:00 8(<30m)
Di, 18.06. 4:50 8(<30m)
Di, 18.06. 4:40 8
Di, 18.06. 4:30 8(<30m) 8(10500m)
Di, 18.06. 4:20 8(<30m) 8(10500m)
Di, 18.06. 4:00 7(<30m) 8(9000m)
Di, 18.06. 3:30 8(<30m) 8(9000m)
Di, 18.06. 3:00 7(<30m)
Di, 18.06. 2:30 7(<30m) 7(2400m)
Ortszeit Luftdruck NN (hPa) Tendenz (hPa in 3 Std.)
Di, 18.06. 2:00 1017 + 0,5
Mo, 17.06. 20:00 1014 + 0,3
Mo, 17.06. 14:00 1014 + 0,9
Mo, 17.06. 8:00 1013 + 0,4
Mo, 17.06. 2:00 1013 + 0,6
So, 16.06. 20:00 1010 + 0,2
So, 16.06. 14:00 1010 - 0,3
So, 16.06. 8:00 1011 + 0,5
Ortszeit Luftdruck NN (hPa) Tendenz (hPa in 3 Std.)
Di, 18.06. 5:10 1017 keine Meldung
Di, 18.06. 5:00 1017 0,0
Di, 18.06. 4:50 1017 keine Meldung
Di, 18.06. 4:40 1017 keine Meldung
Di, 18.06. 4:30 1016 - 0,3
Di, 18.06. 4:20 1016 keine Meldung
Di, 18.06. 4:00 1017 - 0,2
Di, 18.06. 3:30 1016 - 0,2
Di, 18.06. 3:00 1017 + 0,1
Di, 18.06. 2:30 1017 + 0,4
Ortszeit Schneehöhe (cm)
Di, 18.06. 2:00 0
Mo, 17.06. 20:00 0
Mo, 17.06. 14:00 0
Mo, 17.06. 8:00 0
Mo, 17.06. 2:00 0
So, 16.06. 20:00 0
So, 16.06. 14:00 0
So, 16.06. 8:00 0
Ortszeit Schneehöhe (cm)
Di, 18.06. 5:10 -
Di, 18.06. 5:00 0
Di, 18.06. 4:50 0
Di, 18.06. 4:40 -
Di, 18.06. 4:30 0
Di, 18.06. 4:20 0
Di, 18.06. 4:00 0
Di, 18.06. 3:30 0
Di, 18.06. 3:00 0
Di, 18.06. 2:30 0
Link zu dieser Seite / Seite empfehlen

Das Wetter in ...